Home > Weather > Saguenay > Past weeks

Flag for Canada Weather for the Past 2 Weeks in Saguenay, Quebec, Canada

Now
15 °F

Cold.


Feels Like: 15 °F
Forecast: N/A
Wind: 2 mph from East

Location: Jonquiere Airport

Current Time: Feb 9, 2016 at 6:39:43 PM

Latest Report: Feb 9, 2016 at 6:00 PM


Visibility: N/A

Pressure: 29.73 "Hg

Humidity: 93%

Dew point: 13 °F

Location of SaguenayLocation

Historic Weather in Saguenay — Graph

°F

Saguenay Temperature Yesterday

Maximum temperature yesterday: 16 °F (at 2:00 PM)
Minimum temperature yesterday: -13 °F (at 7:00 AM)
Average temperature yesterday: 4 °F

High & Low Weather Summary for the Past Weeks

 TemperatureHumidityPressure
High38 °F (Feb 4, 8:00 AM)100% (Jan 26, 12:00 AM)30.49 "Hg (Jan 26, 12:00 AM)
Low-13 °F (Feb 8, 7:00 AM)54% (Feb 7, 3:00 PM)29.27 "Hg (Feb 1, 6:00 AM)
Average16 °F85%29.95 "Hg
* Reported Jan 25 4:00 PM — Feb 9 4:00 PM, Saguenay, Weather by CustomWeather, © 2016

Note: Actual official high and low records may vary slightly from our data, if they occured in-between our weather recording intervals... More about our weather records

Advertising

Saguenay Weather History for the Previous 24 Hours

 ConditionsComfort  
Time TempWeatherWind HumidityBarometerVisibility
4:00 PM
Tue, Feb 9
17 °FCold.6 mph88%29.77 "HgN/A
3:00 PM17 °FCold.3 mph88%29.78 "HgN/A
2:00 PM17 °FCold.1 mph89%29.79 "HgN/A
1:00 PM17 °FCold.1 mph88%29.80 "HgN/A
12:00 PM16 °FCold.3 mph82%29.83 "HgN/A
11:00 AM16 °FCold.6 mph75%29.86 "HgN/A
10:00 AM15 °FCold.5 mph84%29.88 "HgN/A
9:00 AM14 °FCold.2 mph81%29.88 "HgN/A
8:00 AM12 °FCold.No wind83%29.90 "HgN/A
7:00 AM11 °FCold.2 mph84%29.91 "HgN/A
6:00 AM11 °FCold.2 mph81%29.93 "HgN/A
5:00 AM11 °FCold.2 mph78%29.94 "HgN/A
4:00 AM11 °FCold.1 mph80%29.96 "HgN/A
3:00 AM11 °FCold.No wind76%29.97 "HgN/A
2:00 AM11 °FCold.2 mph75%30.00 "HgN/A
1:00 AM11 °FCold.3 mph78%30.01 "HgN/A
12:00 AM11 °FCold.3 mph78%30.04 "HgN/A
11:00 PM
Mon, Feb 8
11 °FCold.2 mph76%30.06 "HgN/A
10:00 PM11 °FCold.1 mph76%30.08 "HgN/A
9:00 PM11 °FCold.2 mph74%30.10 "HgN/A
8:00 PM12 °FCold.6 mph73%30.12 "HgN/A
7:00 PM12 °FCold.10 mph73%30.13 "HgN/A
6:00 PM13 °FCold.9 mph70%30.12 "HgN/A
Weather by CustomWeather, © 2016

See weather overviewHow to use our weather pages